Hourly Data Report for March 15, 2012

BAGOTVILLE A
QUEBEC

48°20'00.000" N
71°00'00.000" W
159.10 m
7060400
71727
YBG

Download Data

Hourly Data (March 2012)
Hourly Data Report for March 15, 2012
TIME
LST
Temp Definition
°C
Dew Point Definition
°C
Rel Hum Definition
%
Precip. Amount Definition
mm

Wind Dir Definition
10's deg

Wind Spd Definition
km/h
Visibility Definition
km
Stn Press Definition
kPa
Hmdx Definition


Wind Chill Definition


Weather Definition


00:00 -3.7 -6.0 84   11 20 24.1 100.97   -10 Mainly Clear
01:00 -4.0 -5.7 88   10 13 24.1 101.04   -9 Mainly Clear
02:00 -3.8 -5.2 90   13 15 24.1 101.00   -9 Mainly Clear
03:00 -3.7 -6.3 82   11 13 24.1 101.04   -9 Mainly Clear
04:00 -3.7 -6.3 82   11 17 24.1 101.07   -9 Mainly Clear
05:00 -3.5 -5.1 89   11 17 24.1 101.07   -9 Mostly Cloudy
06:00 -3.9 -6.5 82   11 13 40.2 101.10   -9 Mostly Cloudy
07:00 -3.2 -6.3 79   12 13 40.2 101.13   -8 Mostly Cloudy
08:00 -2.5 -7.0 71   12 19 40.2 101.12   -8 Mostly Cloudy
09:00 -1.6 -5.8 73   11 19 40.2 101.10   -7 Mostly Cloudy
10:00 -0.5 -6.0 66   11 19 40.2 101.01   -6 Mainly Clear
11:00 -0.1 -5.1 69   9 28 40.2 100.95   -6 Mainly Clear
12:00 0.3 -4.5 70   9 30 40.2 100.85     Mainly Clear
13:00 0.9 -2.6 77   9 33 40.2 100.78     Mainly Clear
14:00 1.0 -4.5 67   9 39 40.2 100.70     Mainly Clear
15:00 1.3 -4.7 64   9 37 40.2 100.64     Mainly Clear
16:00 1.7 -3.5 68   10 30 40.2 100.60     Mainly Clear
17:00 1.0 -3.3 73   9 30 40.2 100.59     Mainly Clear
18:00 0.3 -3.6 75   9 32 40.2 100.60     Mainly Clear
19:00 -0.6 -3.6 80   10 33 24.1 100.55   -8 Mostly Cloudy
20:00 -1.1 -4.0 81   10 30 24.1 100.53   -8 Mostly Cloudy
21:00 -1.6 -4.3 82   10 30 24.1 100.57   -9 Mainly Clear
22:00 -2.0 -4.2 85   10 22 24.1 100.55   -8 Mainly Clear
23:00 -2.2 -4.7 83   10 26 24.1 100.46   -9 Mainly Clear

Notes on Data Quality.

Legend

  • E = Estimated
  • M = Missing
  • NA = Not Available*
  • [empty] = Indicates an unobserved value
Date modified: